Regional Weather Roundup
Issued by NWS Green Bay, WI

Home | Current Version | Previous Version | Text Only | Print | Product List | Glossary On
Versions: 1 2 3 4 5 6 7 8 9 10 11 12 13 14 15 16 17 18 19 20 21 22 23 24 25 26 27 28 29 30 31 32 33 34 35 36 37 38 39 40 41 42 43 44 45 46 47 48 49 50
000
ASUS43 KGRB 280000
RWRGRB

NORTH-CENTRAL AND NORTHEAST WISCONSIN REGIONAL WEATHER ROUNDUP
NATIONAL WEATHER SERVICE GREEN BAY WI
700 PM CDT THU AUG 27 2015

WIZ005-009-010>012-018-019-280100-
NORTH CENTRAL WISCONSIN

CITY           SKY/WX    TMP DP  RH WIND       PRES   REMARKS
IRONWOOD       PTCLDY    70  57  64 SW7       30.02S
MANITOWISH WTR NOT AVBL
ARBOR VITAE    NOT AVBL
EAGLE RIVER    NOT AVBL
LAND O LAKES   NOT AVBL
RHINELANDER    CLOUDY    68  55  63 SW5       30.09F
PHILLIPS       CLOUDY    68  58  70 S5        30.06F
ANTIGO         NOT AVBL
TOMAHAWK       NOT AVBL
MERRILL        MOCLDY    69  58  66 CALM      30.09S
$$

WIZ013-073-280100-
NORTHEAST WISCONSIN

CITY           SKY/WX    TMP DP  RH WIND       PRES   REMARKS
IRON MOUNTAIN  CLEAR     68  56  65 S7        30.06S
MARINETTE      CLEAR     66  55  68 S7        30.08S
$$

WIZ017-030-035>037-045-280100-
CENTRAL WISCONSIN

CITY           SKY/WX    TMP DP  RH WIND       PRES   REMARKS
MEDFORD        NOT AVBL
WAUSAU         MOCLDY    70  57  63 SW3       30.07F
MOSINEE        NOT AVBL
MARSHFIELD     MOCLDY    69  57  65 SW5       30.08F
WISC RAPIDS    MOCLDY    70  56  61 S5        30.09F
STEVENS POINT  NOT AVBL
WAUPACA        NOT AVBL
SHAWANO        NOT AVBL
CLINTONVILLE   PTCLDY    70  55  60 S3        30.08S
WAUTOMA        NOT AVBL
$$

WIZ038-039-048-051-280100-
FOX VALLEY

CITY           SKY/WX    TMP DP  RH WIND       PRES   REMARKS
NWS GREEN BAY  CLEAR     68  59  73 SW5       30.09S
APPLETON       MOCLDY    70  55  60 S5        30.08S
OSHKOSH        MOCLDY    66  58  75 S5        30.10R
FOND DU LAC    MOCLDY    69  57  65 S5        30.10S
$$

WIZ022-050-052-280100-
EAST CENTRAL WISCONSIN

CITY           SKY/WX    TMP DP  RH WIND       PRES   REMARKS
EPHRAIM        FAIR      62  55  75 S6        30.09F
STURGEON BAY   CLEAR     64  54  68 S9        30.12F
MANITOWOC      NOT AVBL
SHEBOYGAN      PTCLDY    63  54  72 S8        30.11F
$$

LMZ563-521-522-541>543-280100-
LAKESHORE

STATION/POSITION TIME  TEMP    WIND        PRES    VSBY  WAVE
                       AIR SEA DIR/SP/G                  HT/PER
                 (UTC) (F)     (DEG/KT/KT) (MB)    (MI)  (FT/S)
SHEBOYGAN LKSHOR 2300   62     190/ 17/ 19 1020.3R
KEWAUNEE LKSHORE 2300   54     180/ 11/ 12 1018.6R
ALGOMA MARINA    2314          200/  8/  9   N/A
NORTHPORT PIER   2300   64     160/  5/ 10 1019.0F
N MID LAKE BUOY  2250   62 65  210/ 14/ 16 1019.6R         1/ 3
S GREEN BAY BUOY 2300   69     120/  8/ 12 1020.0F
SISTER BAY LKSHO 2334   66     190/ 13/ 16   N/A
CHAMBERS ISLAND  2300   67     140/  4/  8 1019.0S
MENOMINEE LKSHOR 2300   63     140/  9/ 10 1017.7S
$$


USA.gov is the U.S. government's official web portal to all federal, state and local government web resources and services.